Welcome to the New NWS' Forecast!
Most changes are behind the scenes, but click here for differences you might notice.

Regional Weather Roundup (RWR)

Issued by Grand Forks, ND (FGF)

                            
000
ASUS43 KFGF 200031
RWRFGF
PRAIRIE TO PINES  WEATHER ROUNDUP
NATIONAL WEATHER SERVICE EASTERN NORTH DAKOTA/GRAND FORKS ND
600 PM CST MON NOV 19 2018

 **SATELLITE DATA USED TO AUGMENT SKY COVER AT AUTOMATED STATIONS**
 *****  WEATHER ACROSS EASTERN NORTH DAKOTA  *****
  
CITY           SKY/WX    TMP DP  RH WIND       PRES   REMARKS
GRAND FORKS    FAIR       2  -3  80 NW6       30.35R WCI  -9          
6HR MIN TEMP:   2; 6HR MAX TEMP:   9;                                

GRAND FRKS AFB PTCLDY     1  -4  78 NW3       30.34S                  
GRAND FRKS NWS   N/A      5   1  85 N3        30.31R                  
DEVILS LAKE    FAIR       3  -3  76 W3        30.30S                  
6HR MIN TEMP:   2; 6HR MAX TEMP:   4;                                

FARGO          FAIR       3  -1  83 NW6       30.34S WCI  -8          
WAHPETON ARPT    N/A      5   0  78 NW5       30.34S WCI  -4          
$$

 ***** WEATHER ACROSS CENTRAL AND WESTERN NORTH DAKOTA  *****
  
CITY           SKY/WX    TMP DP  RH WIND       PRES   REMARKS
BISMARCK       CLOUDY     9   4  80 E6        30.29S WCI  -1          
6HR MIN TEMP:   9; 6HR MAX TEMP:  11;                                

MINOT          CLOUDY    12   6  77 SE7       30.21F WCI   1          
6HR MIN TEMP:  10; 6HR MAX TEMP:  12; 6HR PCP: TRACE;                

JAMESTOWN      FAIR       0  -4  83 N3        30.29S                  
6HR MIN TEMP:  -1; 6HR MAX TEMP:   9;                                

MINOT AFB      CLOUDY    11   5  79 S10       30.19F WCI  -3          
GARRISON         N/A     13   9  84 MISG      30.21F                  
WILLISTON      CLOUDY    22  17  81 S7        30.15F WCI  13          
6HR MIN TEMP:  18; 6HR MAX TEMP:  22;                                

DICKINSON      CLOUDY    21  18  88 S7        30.12F FOG     WCI  12  
6HR MIN TEMP:  15; 6HR MAX TEMP:  21;                                

HETTINGER      CLOUDY    20  18  92 SE6       30.18R WCI  12          
6HR MIN TEMP:  19; 6HR MAX TEMP:  21; 6HR PCP: TRACE;                

$$

 *****  OTHER AIRPORT OBSERVATIONS IN OUR AREA  *****
  
CITY           SKY/WX    TMP DP  RH WIND       PRES   REMARKS
WALHALLA         N/A     -2   0 100 SW6       30.32S WCI -14          
GRAFTON AIRPOR FAIR       5  -2  72 W5        30.36F WCI  -4          
VALLEY CITY AR FAIR       0  -4  85 NW6       30.32S WCI -12          
CANDO          FAIR       0  -4  85 S7        30.27F WCI -13          
CAVALIER APRT  FAIR      -2  -8  78 SW5       30.32F WCI -12          
GWINNER          N/A      3   0  85 CALM      30.33R                  
SHEYENNE NWR     N/A      5  -1  77 N2        29.95                   
ROLLA          FAIR       0  -4  85 SW9       30.19F WCI -16          
 ***** THE ABOVE OBSERVATIONS ARE NON NWS ARE NOT QUALITY
       CONTROLLED AND MAY MIS-REPORT RAIN FOR SNOW...
$$

  *****  WEATHER ACROSS NORTHERN MINNESOTA  *****     
  
CITY           SKY/WX    TMP DP  RH WIND       PRES   REMARKS
FLAG ISLAND    FAIR       7  -2  66 SW3       30.26F                  
WARROAD        FAIR       3  -2  78 CALM      30.29F                  
ROSEAU         FAIR       5  -2  72 CALM      30.29F                  
HALLOCK        FAIR       3  -2  78 W3        30.32F                  
THF RVR FALLS  FAIR       4  -1  80 CALM      30.31S                  
6HR MIN TEMP:   4; 6HR MAX TEMP:  12;                                

BAUDETTE       FAIR       3  -2  79 W3        30.28S                  
6HR MIN TEMP:   3; 6HR MAX TEMP:   9; 6HR PCP: TRACE;                

WASKISH        FAIR       3   0  85 CALM      30.28R                  
CROOKSTON      FAIR       7   0  72 N6        30.35R WCI  -3          
STEPHEN NDAWN    N/A      5  -2  72 NW2         N/A                   
GREENBUSH NDAW   N/A      3  -4  72 W2          N/A                   
$$
  *****  WEATHER ACROSS CENTRAL AND WEST MINNESOTA  *****     
  
CITY           SKY/WX    TMP DP  RH WIND       PRES   REMARKS
FOSSTON        FAIR      -4  -8  84 NW3       30.29S                  
BEMIDJI        FAIR       1  -3  83 CALM      30.26S                  
6HR MIN TEMP:   3; 6HR MAX TEMP:  12;                                

PARK RAPIDS    FAIR       5   0  79 NW6       30.25R WCI  -6          
6HR MIN TEMP:   5; 6HR MAX TEMP:  16;                                

ELBOW LAKE     FAIR       7   4  88 NW10      30.31R WCI  -8          
6HR MIN TEMP:   8; 6HR MAX TEMP:  19;                                

WADENA         FAIR       9   1  72 W5        30.26R WCI   0          
DETROIT LAKES  FAIR       5   3  92 NW6       30.28F WCI  -6          
MOORHEAD       FAIR       0  -6  78 CALM      30.34F                  
FERGUS FALLS   FAIR       5   1  85 N8        30.36S WCI  -8          
MORRIS MN      FAIR       7   3  85 NW13      30.29S WCI  -9          
STAPLES        FAIR       7   0  72 N5        30.26R WCI  -2          
$$
  *****  WEATHER ELSEWHERE ACROSS MINNESOTA  *****     
  
CITY           SKY/WX    TMP DP  RH WIND       PRES   REMARKS
DULUTH         FAIR       9   0  67 N9        30.21R WCI  -4          
6HR MIN TEMP:   9; 6HR MAX TEMP:  19; 6HR PCP: TRACE;                

INTRNTL FALLS  FAIR       2  -1  88 CALM      30.28S                  
6HR MIN TEMP:   2; 6HR MAX TEMP:  10; 6HR PCP: TRACE;                

ELY            FAIR       1  -2  85 CALM      30.23R                  
CLOQUET        FAIR       9   1  72 N3        30.23R                  
WHEATON        FAIR       5   1  85 NW9       30.35S WCI  -9          
BRAINERD       FAIR      10   2  69 N5        30.25R WCI   2          
6HR MIN TEMP:   9; 6HR MAX TEMP:  19; 6HR PCP: TRACE;                

HIBBING        FAIR       4  -2  76 N3        30.23R                  
6HR MIN TEMP:   2; 6HR MAX TEMP:  13; 6HR PCP: TRACE;                

ALEXANDRIA     FAIR      15   6  67 NW9       30.26R WCI   3          
6HR MIN TEMP:  15; 6HR MAX TEMP:  22; 6HR PCP: TRACE;                

SAINT CLOUD    CLOUDY    19  10  68 N9        30.25R WCI   8          
6HR MIN TEMP:  19; 6HR MAX TEMP:  22;                                

MINNEAPOLIS    CLOUDY    24  16  71 N10       30.22R WCI  14          
6HR MIN TEMP:  24; 6HR MAX TEMP:  30; 6HR PCP: TRACE;                

$$

  *****  WEATHER ACROSS SOUTH DAKOTA  *****
  
CITY           SKY/WX    TMP DP  RH WIND       PRES   REMARKS
SIOUX FALLS    FAIR      20  12  71 N9        30.26R WCI   9          
6HR MIN TEMP:  20; 6HR MAX TEMP:  28;                                

BROOKINGS      FAIR      11   6  81 N8        30.26R WCI  -1          
WATERTOWN      FAIR       7   3  84 N9        30.25R WCI  -7          
6HR MIN TEMP:   7; 6HR MAX TEMP:  16;                                

HURON          FAIR      12   6  77 N7        30.31R WCI   1          
6HR MIN TEMP:  12; 6HR MAX TEMP:  22;                                

SISSETON         N/A      3   0  87 NW7       30.32R WCI  -9          
ABERDEEN       FAIR       7   2  80 N3        30.32S                  
6HR MIN TEMP:   7; 6HR MAX TEMP:  14;                                

MITCHELL       FAIR      17   9  70 N8        30.31R WCI   7          
PIERRE         CLOUDY    22  14  71 E6        30.26S WCI  14          
6HR MIN TEMP:  22; 6HR MAX TEMP:  23; 6HR PCP: TRACE;                

MOBRIDGE       CLOUDY    16   8  71 E5        30.25R WCI   9          
RAPID CITY     CLOUDY    36  29  75 NE10      30.16R                  
6HR MIN TEMP:  36; 6HR MAX TEMP:  45;                                

$$

  *****  SOME WEATHER IN NEARBY STATES *****
  
CITY           SKY/WX    TMP DP  RH WIND       PRES   REMARKS
GLASGOW MT     FAIR      27  24  89 E10       30.09F WCI  17          
6HR MIN TEMP:  27; 6HR MAX TEMP:  31;                                

GREAT FALLS MT FAIR      40  26  57 SW13      30.08S                  
6HR MIN TEMP:  40; 6HR MAX TEMP:  47;                                

CHEYENNE WY    FAIR      36  17  46 NW8       30.18R                  
6HR MIN TEMP:  35; 6HR MAX TEMP:  43;                                

SCOTTSBLUFF NE FAIR      38  30  73 NW3       30.20R                  
6HR MIN TEMP:  37; 6HR MAX TEMP:  45;                                

OMAHA NE       CLOUDY    33  20  58 N9        30.24R                  
6HR MIN TEMP:  33; 6HR MAX TEMP:  39;                                

DES MOINES IA  CLOUDY    29  22  75 N16G23    30.20R WCI  17          
6HR MIN TEMP:  29; 6HR MAX TEMP:  40;                                

DAVENPORT IA   FAIR      30  24  78 NW8       30.11R WCI  22          
6HR MIN TEMP:  30; 6HR MAX TEMP:  36;                                

CHICAGO IL     CLOUDY    34  27  75 W3        30.04S                  
6HR MIN TEMP:  29; 6HR MAX TEMP:  34;                                

EAU CLAIRE WI  FLURRIES  25  19  78 N8        30.16R WCI  16          
6HR MIN TEMP:  25; 6HR MAX TEMP:  28; 6HR PCP: TRACE;                

LA CROSSE WI   CLOUDY    30  18  60 NW10      30.15R WCI  21          
6HR MIN TEMP:  29; 6HR MAX TEMP:  32;                                

$$

  *****  SOME NATIONAL WEATHER *****
  
CITY           SKY/WX    TMP DP  RH WIND       PRES   REMARKS
LA GUARDIA NY  MOCLDY    49  38  65 E5        29.99F                  
6HR MIN TEMP:  49; 6HR MAX TEMP:  52;                                

RALEIGH NC     FAIR      54  49  83 S3        30.03R                  
6HR MIN TEMP:  54; 6HR MAX TEMP:  65;                                

ATLANTA GA     MOCLDY    60  47  61 SW5       30.09R                  
6HR MIN TEMP:  59; 6HR MAX TEMP:  69;                                

NEW ORLEANS LA LGT RAIN  61  58  90 E5        30.11F                  
6HR MIN TEMP:  60; 6HR MAX TEMP:  71; 6HR PCP:  0.02;                

OKLAHOMA CITY  FAIR      44  32  62 N7        30.18R                  
6HR MIN TEMP:  44; 6HR MAX TEMP:  53;                                

ALBUQUERQUE NM FAIR      51  15  23 S5        30.20R                  
6HR MIN TEMP:  46; 6HR MAX TEMP:  54;                                

SALT LAKE CITY FAIR      40  26  57 W6        30.27S                  
6HR MIN TEMP:  38; 6HR M